contact:dominique.lefevre@mio.osupytheas.fr, maurice.libes@osupytheas.fr, didier.mallarino@osupytheas.fr
Project:EMSO http://www.emso-fr.org/EMSO-France
Depth: 2436.0 m
Title:EMSO Ligure Ouest : Data MII capteur MICROCAT
DateTime_Computer,Latitude,Longitude,Temperature,Conductivity,Pressure,DateTime_Instrument
DateTime_Computer,Latitude,Longitude,degC,S m-1,dbar,DateTime_Instrument
2020-07-19T00:02:01Z,42.805,6.029,13.3014,4.60051,2470.053,2020-7-19T02:02:48Z
2020-07-19T00:05:04Z,42.805,6.029,13.3036,4.60103,2470.053,2020-7-19T02:05:51Z
2020-07-19T00:08:08Z,42.805,6.029,13.2984,4.60017,2470.077,2020-7-19T02:08:55Z
2020-07-19T00:11:11Z,42.805,6.029,13.2993,4.60069,2470.017,2020-7-19T02:11:58Z
2020-07-19T00:14:14Z,42.805,6.029,13.3018,4.60014,2470.063,2020-7-19T02:15:01Z
2020-07-19T00:17:18Z,42.805,6.029,13.3000,4.60055,2470.026,2020-7-19T02:18:05Z
2020-07-19T00:20:21Z,42.805,6.029,13.3003,4.60018,2470.053,2020-7-19T02:21:08Z
2020-07-19T00:23:24Z,42.805,6.029,13.3008,4.60135,2470.063,2020-7-19T02:24:11Z
2020-07-19T00:26:27Z,42.805,6.029,13.3025,4.60047,2470.063,2020-7-19T02:27:14Z
2020-07-19T00:29:31Z,42.805,6.029,13.3027,4.60068,2470.04,2020-7-19T02:30:18Z
2020-07-19T00:32:34Z,42.805,6.029,13.3023,4.60047,2470.053,2020-7-19T02:33:21Z
2020-07-19T00:35:37Z,42.805,6.029,13.3026,4.60048,2470.04,2020-7-19T02:36:24Z
2020-07-19T00:38:40Z,42.805,6.029,13.3043,4.60064,2470.017,2020-7-19T02:39:27Z
2020-07-19T00:41:44Z,42.805,6.029,13.3014,4.60060,2470.03,2020-7-19T02:42:31Z
2020-07-19T00:44:47Z,42.805,6.029,13.2998,4.60061,2470.04,2020-7-19T02:45:34Z
2020-07-19T00:47:50Z,42.805,6.029,13.3015,4.60045,2470.04,2020-7-19T02:48:37Z
2020-07-19T00:50:53Z,42.805,6.029,13.3023,4.60063,2470.063,2020-7-19T02:51:40Z
2020-07-19T00:53:57Z,42.805,6.029,13.3024,4.60052,2470.053,2020-7-19T02:54:44Z
2020-07-19T00:57:00Z,42.805,6.029,13.3024,4.60031,2470.04,2020-7-19T02:57:47Z
2020-07-19T01:00:03Z,42.805,6.029,13.3007,4.60046,2470.017,2020-7-19T03:00:50Z
2020-07-19T01:03:07Z,42.805,6.029,13.2989,4.60073,2470.053,2020-7-19T03:03:54Z
2020-07-19T01:06:10Z,42.805,6.029,13.3011,4.60033,2470.017,2020-7-19T03:06:57Z
2020-07-19T01:09:13Z,42.805,6.029,13.3023,4.60033,2470.04,2020-7-19T03:10:00Z
2020-07-19T01:12:16Z,42.805,6.029,13.2984,4.60039,2470.04,2020-7-19T03:13:03Z
2020-07-19T01:15:20Z,42.805,6.029,13.3014,4.60051,2470.04,2020-7-19T03:16:07Z
2020-07-19T01:18:23Z,42.805,6.029,13.3013,4.60058,2470.077,2020-7-19T03:19:10Z
2020-07-19T01:21:26Z,42.805,6.029,13.3011,4.60019,2470.063,2020-7-19T03:22:13Z
2020-07-19T01:24:29Z,42.805,6.029,13.3001,4.60058,2470.063,2020-7-19T03:25:16Z
2020-07-19T01:27:32Z,42.805,6.029,13.3016,4.60049,2470.077,2020-7-19T03:28:19Z
2020-07-19T01:30:36Z,42.805,6.029,13.3014,4.60045,2470.053,2020-7-19T03:31:23Z
2020-07-19T01:33:39Z,42.805,6.029,13.3015,4.60037,2470.053,2020-7-19T03:34:26Z
2020-07-19T01:36:42Z,42.805,6.029,13.2996,4.60066,2470.063,2020-7-19T03:37:29Z
2020-07-19T01:39:46Z,42.805,6.029,13.2991,4.60036,2470.04,2020-7-19T03:40:33Z
2020-07-19T01:42:49Z,42.805,6.029,13.2990,4.60026,2470.053,2020-7-19T03:43:36Z
2020-07-19T01:45:52Z,42.805,6.029,13.2996,4.60056,2470.077,2020-7-19T03:46:39Z
2020-07-19T01:48:56Z,42.805,6.029,13.3030,4.60044,2470.017,2020-7-19T03:49:43Z
2020-07-19T01:51:59Z,42.805,6.029,13.3023,4.60029,2470.053,2020-7-19T03:52:46Z
2020-07-19T01:55:02Z,42.805,6.029,13.3007,4.60049,2470.04,2020-7-19T03:55:49Z
2020-07-19T01:58:05Z,42.805,6.029,13.3005,4.60060,2470.087,2020-7-19T03:58:52Z
2020-07-19T02:01:08Z,42.805,6.029,13.3010,4.60056,2470.063,2020-7-19T04:01:55Z
2020-07-19T02:04:12Z,42.805,6.029,13.3006,4.60040,2470.077,2020-7-19T04:04:59Z
2020-07-19T02:07:15Z,42.805,6.029,13.3014,4.60064,2470.03,2020-7-19T04:08:02Z
2020-07-19T02:10:18Z,42.805,6.029,13.3026,4.60046,2470.03,2020-7-19T04:11:05Z
2020-07-19T02:13:21Z,42.805,6.029,13.3006,4.60032,2470.053,2020-7-19T04:14:08Z
2020-07-19T02:16:25Z,42.805,6.029,13.2993,4.60084,2470.124,2020-7-19T04:17:12Z
2020-07-19T02:19:28Z,42.805,6.029,13.3024,4.60039,2470.077,2020-7-19T04:20:15Z
2020-07-19T02:22:31Z,42.805,6.029,13.3014,4.60046,2470.04,2020-7-19T04:23:18Z
2020-07-19T02:25:34Z,42.805,6.029,13.3032,4.60006,2470.077,2020-7-19T04:26:21Z
2020-07-19T02:28:37Z,42.805,6.029,13.3025,4.60023,2470.04,2020-7-19T04:29:25Z
2020-07-19T02:31:41Z,42.805,6.029,13.3007,4.60023,2470.063,2020-7-19T04:32:28Z
2020-07-19T02:34:44Z,42.805,6.029,13.2994,4.60026,2470.063,2020-7-19T04:35:31Z
2020-07-19T02:37:47Z,42.805,6.029,13.3010,4.60011,2470.053,2020-7-19T04:38:34Z
2020-07-19T02:40:50Z,42.805,6.029,13.3006,4.60042,2470.04,2020-7-19T04:41:37Z
2020-07-19T02:43:54Z,42.805,6.029,13.3018,4.60022,2470.1,2020-7-19T04:44:41Z
2020-07-19T02:46:57Z,42.805,6.029,13.3013,4.60045,2470.063,2020-7-19T04:47:44Z
2020-07-19T02:50:00Z,42.805,6.029,13.3021,4.60028,2470.063,2020-7-19T04:50:47Z
2020-07-19T02:53:04Z,42.805,6.029,13.3043,4.60003,2470.087,2020-7-19T04:53:51Z
2020-07-19T02:56:07Z,42.805,6.029,13.3006,4.60019,2470.087,2020-7-19T04:56:54Z
2020-07-19T02:59:10Z,42.805,6.029,13.2996,4.60049,2470.1,2020-7-19T04:59:57Z
2020-07-19T03:02:13Z,42.805,6.029,13.3006,4.60008,2470.1,2020-7-19T05:03:00Z
2020-07-19T03:05:16Z,42.805,6.029,13.3011,4.60060,2470.087,2020-7-19T05:06:04Z
2020-07-19T03:08:20Z,42.805,6.029,13.3004,4.60041,2470.1,2020-7-19T05:09:07Z
2020-07-19T03:11:23Z,42.805,6.029,13.2993,4.60009,2470.077,2020-7-19T05:12:10Z
2020-07-19T03:14:26Z,42.805,6.029,13.3024,4.60001,2470.087,2020-7-19T05:15:13Z
2020-07-19T03:17:29Z,42.805,6.029,13.2993,4.60016,2470.063,2020-7-19T05:18:16Z
2020-07-19T03:20:33Z,42.805,6.029,13.2997,4.60023,2470.124,2020-7-19T05:21:20Z
2020-07-19T03:23:36Z,42.805,6.029,13.3014,4.60003,2470.11,2020-7-19T05:24:23Z
2020-07-19T03:26:39Z,42.805,6.029,13.3010,4.60019,2470.063,2020-7-19T05:27:26Z
2020-07-19T03:29:43Z,42.805,6.029,13.3015,4.60023,2470.1,2020-7-19T05:30:30Z
2020-07-19T03:32:46Z,42.805,6.029,13.3014,4.60016,2470.124,2020-7-19T05:33:33Z
2020-07-19T03:35:49Z,42.805,6.029,13.3019,4.60034,2470.124,2020-7-19T05:36:36Z
2020-07-19T03:38:52Z,42.805,6.029,13.3004,4.60029,2470.087,2020-7-19T05:39:39Z
2020-07-19T03:41:55Z,42.805,6.029,13.3019,4.59999,2470.124,2020-7-19T05:42:43Z
2020-07-19T03:44:59Z,42.805,6.029,13.3008,4.60014,2470.087,2020-7-19T05:45:46Z
2020-07-19T03:48:02Z,42.805,6.029,13.3020,4.60011,2470.11,2020-7-19T05:48:49Z
2020-07-19T03:51:05Z,42.805,6.029,13.3014,4.60026,2470.1,2020-7-19T05:51:52Z
2020-07-19T03:54:08Z,42.805,6.029,13.3019,4.60021,2470.1,2020-7-19T05:54:55Z
2020-07-19T03:57:12Z,42.805,6.029,13.2989,4.60026,2470.147,2020-7-19T05:57:59Z
2020-07-19T04:00:15Z,42.805,6.029,13.3036,4.60010,2470.087,2020-7-19T06:01:02Z
2020-07-19T04:03:18Z,42.805,6.029,13.3013,4.60041,2470.124,2020-7-19T06:04:05Z
2020-07-19T04:06:21Z,42.805,6.029,13.2991,4.60033,2470.087,2020-7-19T06:07:08Z
2020-07-19T04:09:25Z,42.805,6.029,13.2998,4.60004,2470.124,2020-7-19T06:10:12Z
2020-07-19T04:12:28Z,42.805,6.029,13.2991,4.60011,2470.124,2020-7-19T06:13:15Z
2020-07-19T04:15:31Z,42.805,6.029,13.3014,4.60014,2470.11,2020-7-19T06:16:18Z
2020-07-19T04:18:34Z,42.805,6.029,13.3001,4.60023,2470.11,2020-7-19T06:19:21Z
2020-07-19T04:21:38Z,42.805,6.029,13.2994,4.60020,2470.124,2020-7-19T06:22:25Z
2020-07-19T04:24:41Z,42.805,6.029,13.2998,4.60015,2470.147,2020-7-19T06:25:28Z
2020-07-19T04:27:44Z,42.805,6.029,13.3017,4.60003,2470.156,2020-7-19T06:28:31Z
2020-07-19T04:30:47Z,42.805,6.029,13.2993,4.60013,2470.133,2020-7-19T06:31:34Z
2020-07-19T04:33:51Z,42.805,6.029,13.2992,4.60006,2470.133,2020-7-19T06:34:38Z
2020-07-19T04:36:54Z,42.805,6.029,13.3006,4.60021,2470.147,2020-7-19T06:37:41Z
2020-07-19T04:39:57Z,42.805,6.029,13.3002,4.60026,2470.133,2020-7-19T06:40:44Z
2020-07-19T04:43:01Z,42.805,6.029,13.3002,4.60035,2470.147,2020-7-19T06:43:48Z
2020-07-19T04:46:04Z,42.805,6.029,13.3029,4.60035,2470.124,2020-7-19T06:46:51Z
2020-07-19T04:49:07Z,42.805,6.029,13.3041,4.60013,2470.11,2020-7-19T06:49:54Z
2020-07-19T04:52:10Z,42.805,6.029,13.3029,4.60073,2470.194,2020-7-19T06:52:57Z
2020-07-19T04:55:13Z,42.805,6.029,13.3038,4.60035,2470.156,2020-7-19T06:56:00Z
2020-07-19T04:58:17Z,42.805,6.029,13.3021,4.60049,2470.133,2020-7-19T06:59:04Z
2020-07-19T05:01:20Z,42.805,6.029,13.3011,4.60011,2470.171,2020-7-19T07:02:07Z
2020-07-19T05:04:23Z,42.805,6.029,13.2998,4.60011,2470.147,2020-7-19T07:05:10Z
2020-07-19T05:07:26Z,42.805,6.029,13.2996,4.59998,2470.171,2020-7-19T07:08:14Z
2020-07-19T05:10:30Z,42.805,6.029,13.2995,4.60035,2470.147,2020-7-19T07:11:17Z
2020-07-19T05:13:33Z,42.805,6.029,13.3012,4.60014,2470.147,2020-7-19T07:14:20Z
2020-07-19T05:16:36Z,42.805,6.029,13.3019,4.60026,2470.18,2020-7-19T07:17:23Z
2020-07-19T05:19:39Z,42.805,6.029,13.3006,4.60024,2470.147,2020-7-19T07:20:26Z
2020-07-19T05:22:42Z,42.805,6.029,13.3019,4.60012,2470.156,2020-7-19T07:23:29Z
2020-07-19T05:25:46Z,42.805,6.029,13.3001,4.60046,2470.171,2020-7-19T07:26:33Z
2020-07-19T05:28:49Z,42.805,6.029,13.3029,4.60019,2470.133,2020-7-19T07:29:36Z
2020-07-19T05:31:52Z,42.805,6.029,13.3011,4.60022,2470.147,2020-7-19T07:32:39Z
2020-07-19T05:34:55Z,42.805,6.029,13.2993,4.59997,2470.133,2020-7-19T07:35:42Z
2020-07-19T05:37:59Z,42.805,6.029,13.3015,4.60016,2470.133,2020-7-19T07:38:46Z
2020-07-19T05:41:02Z,42.805,6.029,13.2994,4.60040,2470.171,2020-7-19T07:41:49Z
2020-07-19T05:44:05Z,42.805,6.029,13.3000,4.60014,2470.133,2020-7-19T07:44:52Z
2020-07-19T05:47:08Z,42.805,6.029,13.3041,4.60001,2470.147,2020-7-19T07:47:55Z
2020-07-19T05:50:12Z,42.805,6.029,13.3009,4.60011,2470.171,2020-7-19T07:50:59Z
2020-07-19T05:53:15Z,42.805,6.029,13.3009,4.60035,2470.171,2020-7-19T07:54:02Z
2020-07-19T05:56:18Z,42.805,6.029,13.3021,4.60014,2470.171,2020-7-19T07:57:06Z
2020-07-19T05:59:22Z,42.805,6.029,13.3027,4.60021,2470.171,2020-7-19T08:00:09Z
2020-07-19T06:02:25Z,42.805,6.029,13.3048,4.60015,2470.171,2020-7-19T08:03:12Z
2020-07-19T06:05:28Z,42.805,6.029,13.3022,4.60016,2470.147,2020-7-19T08:06:15Z
2020-07-19T06:08:31Z,42.805,6.029,13.3049,4.60020,2470.171,2020-7-19T08:09:18Z
2020-07-19T06:11:35Z,42.805,6.029,13.2989,4.60010,2470.156,2020-7-19T08:12:22Z
2020-07-19T06:14:38Z,42.805,6.029,13.3034,4.60016,2470.133,2020-7-19T08:15:25Z
2020-07-19T06:17:41Z,42.805,6.029,13.3039,4.60050,2470.171,2020-7-19T08:18:28Z
2020-07-19T06:20:44Z,42.805,6.029,13.3000,4.60026,2470.133,2020-7-19T08:21:31Z
2020-07-19T06:23:48Z,42.805,6.029,13.3030,4.59992,2470.11,2020-7-19T08:24:35Z
2020-07-19T06:26:51Z,42.805,6.029,13.2991,4.60006,2470.156,2020-7-19T08:27:38Z
2020-07-19T06:29:54Z,42.805,6.029,13.3008,4.60016,2470.133,2020-7-19T08:30:41Z
2020-07-19T06:32:57Z,42.805,6.029,13.3006,4.60005,2470.11,2020-7-19T08:33:44Z
2020-07-19T06:36:00Z,42.805,6.029,13.3021,4.60014,2470.156,2020-7-19T08:36:47Z
2020-07-19T06:39:04Z,42.805,6.029,13.3011,4.60006,2470.133,2020-7-19T08:39:51Z
2020-07-19T06:42:07Z,42.805,6.029,13.3021,4.59998,2470.18,2020-7-19T08:42:54Z
2020-07-19T06:45:10Z,42.805,6.029,13.3014,4.60006,2470.147,2020-7-19T08:45:57Z
2020-07-19T06:48:13Z,42.805,6.029,13.3034,4.60014,2470.171,2020-7-19T08:49:00Z
2020-07-19T06:51:17Z,42.805,6.029,13.2997,4.60005,2470.147,2020-7-19T08:52:04Z
2020-07-19T06:54:20Z,42.805,6.029,13.3029,4.60012,2470.156,2020-7-19T08:55:07Z
2020-07-19T06:57:23Z,42.805,6.029,13.3035,4.60008,2470.147,2020-7-19T08:58:10Z
2020-07-19T07:00:26Z,42.805,6.029,13.3030,4.60015,2470.133,2020-7-19T09:01:14Z
2020-07-19T07:03:30Z,42.805,6.029,13.3030,4.60029,2470.133,2020-7-19T09:04:17Z
2020-07-19T07:06:33Z,42.805,6.029,13.3029,4.60022,2470.147,2020-7-19T09:07:20Z
2020-07-19T07:09:36Z,42.805,6.029,13.3014,4.60041,2470.171,2020-7-19T09:10:23Z
2020-07-19T07:12:39Z,42.805,6.029,13.3013,4.60033,2470.133,2020-7-19T09:13:26Z
2020-07-19T07:15:43Z,42.805,6.029,13.3016,4.60032,2470.156,2020-7-19T09:16:30Z
2020-07-19T07:18:46Z,42.805,6.029,13.3027,4.60019,2470.11,2020-7-19T09:19:33Z
2020-07-19T07:21:49Z,42.805,6.029,13.3024,4.60024,2470.133,2020-7-19T09:22:36Z
2020-07-19T07:24:53Z,42.805,6.029,13.3011,4.60039,2470.147,2020-7-19T09:25:40Z
2020-07-19T07:27:56Z,42.805,6.029,13.3024,4.60039,2470.156,2020-7-19T09:28:43Z
2020-07-19T07:30:59Z,42.805,6.029,13.3012,4.60027,2470.124,2020-7-19T09:31:46Z
2020-07-19T07:34:03Z,42.805,6.029,13.3012,4.60019,2470.161,2020-7-19T09:34:50Z
2020-07-19T07:37:06Z,42.805,6.029,13.3046,4.60016,2470.147,2020-7-19T09:37:53Z
2020-07-19T07:40:09Z,42.805,6.029,13.3038,4.60025,2470.147,2020-7-19T09:40:56Z
2020-07-19T07:43:12Z,42.805,6.029,13.3027,4.60036,2470.11,2020-7-19T09:43:59Z
2020-07-19T07:46:15Z,42.805,6.029,13.3020,4.60031,2470.124,2020-7-19T09:47:03Z
2020-07-19T07:49:19Z,42.805,6.029,13.3000,4.60039,2470.171,2020-7-19T09:50:06Z
2020-07-19T07:52:22Z,42.805,6.029,13.3011,4.60021,2470.1,2020-7-19T09:53:09Z
2020-07-19T07:55:25Z,42.805,6.029,13.3025,4.60056,2470.124,2020-7-19T09:56:12Z
2020-07-19T07:58:28Z,42.805,6.029,13.3031,4.60043,2470.11,2020-7-19T09:59:16Z
2020-07-19T08:01:32Z,42.805,6.029,13.3035,4.60003,2470.1,2020-7-19T10:02:19Z
2020-07-19T08:04:35Z,42.805,6.029,13.3041,4.60011,2470.11,2020-7-19T10:05:22Z
2020-07-19T08:07:38Z,42.805,6.029,13.3043,4.60031,2470.133,2020-7-19T10:08:25Z
2020-07-19T08:10:41Z,42.805,6.029,13.3036,4.60042,2470.11,2020-7-19T10:11:28Z
2020-07-19T08:13:45Z,42.805,6.029,13.3028,4.60039,2470.1,2020-7-19T10:14:32Z
2020-07-19T08:16:48Z,42.805,6.029,13.3032,4.60006,2470.124,2020-7-19T10:17:35Z
2020-07-19T08:19:51Z,42.805,6.029,13.3030,4.60015,2470.124,2020-7-19T10:20:38Z
2020-07-19T08:22:54Z,42.805,6.029,13.2998,4.60039,2470.124,2020-7-19T10:23:41Z
2020-07-19T08:25:58Z,42.805,6.029,13.3021,4.60039,2470.087,2020-7-19T10:26:45Z
2020-07-19T08:29:01Z,42.805,6.029,13.3008,4.60043,2470.087,2020-7-19T10:29:48Z
2020-07-19T08:32:04Z,42.805,6.029,13.3021,4.60033,2470.124,2020-7-19T10:32:51Z
2020-07-19T08:35:07Z,42.805,6.029,13.3057,4.60039,2470.1,2020-7-19T10:35:54Z
2020-07-19T08:38:10Z,42.805,6.029,13.3062,4.60049,2470.087,2020-7-19T10:38:57Z
2020-07-19T08:41:14Z,42.805,6.029,13.3053,4.60020,2470.1,2020-7-19T10:42:01Z
2020-07-19T08:44:17Z,42.805,6.029,13.3034,4.60009,2470.077,2020-7-19T10:45:04Z
2020-07-19T08:47:20Z,42.805,6.029,13.3037,4.60026,2470.124,2020-7-19T10:48:08Z
2020-07-19T08:50:24Z,42.805,6.029,13.3032,4.60022,2470.087,2020-7-19T10:51:11Z
2020-07-19T08:53:27Z,42.805,6.029,13.3034,4.60033,2470.1,2020-7-19T10:54:14Z
2020-07-19T08:56:30Z,42.805,6.029,13.3043,4.60034,2470.087,2020-7-19T10:57:17Z
2020-07-19T08:59:33Z,42.805,6.029,13.3026,4.60028,2470.087,2020-7-19T11:00:20Z
2020-07-19T09:02:37Z,42.805,6.029,13.3046,4.59999,2470.077,2020-7-19T11:03:24Z
2020-07-19T09:05:40Z,42.805,6.029,13.3026,4.59998,2470.087,2020-7-19T11:06:27Z
2020-07-19T09:08:43Z,42.805,6.029,13.3024,4.59996,2470.063,2020-7-19T11:09:30Z
2020-07-19T09:11:46Z,42.805,6.029,13.3039,4.60003,2470.077,2020-7-19T11:12:33Z
2020-07-19T09:14:50Z,42.805,6.029,13.3044,4.60004,2470.087,2020-7-19T11:15:37Z
2020-07-19T09:17:53Z,42.805,6.029,13.3026,4.60007,2470.063,2020-7-19T11:18:40Z
2020-07-19T09:20:56Z,42.805,6.029,13.3035,4.60011,2470.087,2020-7-19T11:21:43Z
2020-07-19T09:23:59Z,42.805,6.029,13.3027,4.60037,2470.1,2020-7-19T11:24:46Z
2020-07-19T09:27:03Z,42.805,6.029,13.3015,4.60035,2470.053,2020-7-19T11:27:50Z
2020-07-19T09:30:06Z,42.805,6.029,13.3020,4.60011,2470.077,2020-7-19T11:30:53Z
2020-07-19T09:33:09Z,42.805,6.029,13.3019,4.60049,2470.087,2020-7-19T11:33:56Z
2020-07-19T09:36:12Z,42.805,6.029,13.3004,4.60044,2470.063,2020-7-19T11:37:00Z
2020-07-19T09:39:16Z,42.805,6.029,13.3021,4.59996,2470.053,2020-7-19T11:40:03Z
2020-07-19T09:42:19Z,42.805,6.029,13.3026,4.60009,2470.053,2020-7-19T11:43:06Z
2020-07-19T09:45:22Z,42.805,6.029,13.3024,4.60002,2470.04,2020-7-19T11:46:09Z
2020-07-19T09:48:25Z,42.805,6.029,13.3034,4.60002,2470.1,2020-7-19T11:49:12Z
2020-07-19T09:51:29Z,42.805,6.029,13.2991,4.60022,2470.077,2020-7-19T11:52:16Z
2020-07-19T09:54:32Z,42.805,6.029,13.3020,4.60058,2470.063,2020-7-19T11:55:19Z
2020-07-19T09:57:35Z,42.805,6.029,13.3026,4.60060,2470.04,2020-7-19T11:58:22Z
2020-07-19T10:00:39Z,42.805,6.029,13.3036,4.60010,2470.077,2020-7-19T12:01:26Z
2020-07-19T10:03:42Z,42.805,6.029,13.3036,4.60035,2470.053,2020-7-19T12:04:29Z
2020-07-19T10:06:45Z,42.805,6.029,13.2994,4.60032,2470.007,2020-7-19T12:07:32Z
2020-07-19T10:09:48Z,42.805,6.029,13.3023,4.60064,2470.03,2020-7-19T12:10:35Z
2020-07-19T10:12:51Z,42.805,6.029,13.3029,4.60016,2470.067,2020-7-19T12:13:38Z
2020-07-19T10:15:55Z,42.805,6.029,13.3008,4.60021,2470.017,2020-7-19T12:16:42Z
2020-07-19T10:18:58Z,42.805,6.029,13.3004,4.60009,2470.04,2020-7-19T12:19:45Z
2020-07-19T10:22:01Z,42.805,6.029,13.3030,4.60052,2470.03,2020-7-19T12:22:48Z
2020-07-19T10:25:05Z,42.805,6.029,13.3036,4.60046,2469.993,2020-7-19T12:25:52Z
2020-07-19T10:28:08Z,42.805,6.029,13.3031,4.60046,2470.017,2020-7-19T12:28:55Z
2020-07-19T10:31:11Z,42.805,6.029,13.3041,4.60084,2470.03,2020-7-19T12:31:58Z
2020-07-19T10:34:14Z,42.805,6.029,13.3024,4.60018,2470.03,2020-7-19T12:35:01Z
2020-07-19T10:37:17Z,42.805,6.029,13.3013,4.60062,2470.017,2020-7-19T12:38:04Z
2020-07-19T10:40:21Z,42.805,6.029,13.3054,4.60073,2470.053,2020-7-19T12:41:08Z
2020-07-19T10:43:24Z,42.805,6.029,13.3076,4.60059,2470.017,2020-7-19T12:44:11Z
2020-07-19T10:46:27Z,42.805,6.029,13.3020,4.60072,2470.017,2020-7-19T12:47:14Z
2020-07-19T10:49:31Z,42.805,6.029,13.3048,4.60033,2470.007,2020-7-19T12:50:18Z
2020-07-19T10:52:34Z,42.805,6.029,13.3009,4.60037,2470.007,2020-7-19T12:53:21Z
2020-07-19T10:55:37Z,42.805,6.029,13.3004,4.60051,2470.017,2020-7-19T12:56:24Z
2020-07-19T10:58:40Z,42.805,6.029,13.3029,4.60045,2470.007,2020-7-19T12:59:27Z
2020-07-19T11:01:43Z,42.805,6.029,13.3045,4.60067,2470.017,2020-7-19T13:02:30Z
2020-07-19T11:04:47Z,42.805,6.029,13.2993,4.60033,2470.017,2020-7-19T13:05:34Z
2020-07-19T11:07:50Z,42.805,6.029,13.3006,4.60052,2470.007,2020-7-19T13:08:37Z
2020-07-19T11:10:53Z,42.805,6.029,13.3048,4.60036,2470.007,2020-7-19T13:11:40Z
2020-07-19T11:13:56Z,42.805,6.029,13.3072,4.60025,2470.007,2020-7-19T13:14:43Z
2020-07-19T11:17:00Z,42.805,6.029,13.3035,4.60046,2470.007,2020-7-19T13:17:47Z
2020-07-19T11:20:03Z,42.805,6.029,13.3082,4.60050,2470.03,2020-7-19T13:20:50Z
2020-07-19T11:23:06Z,42.805,6.029,13.3038,4.60025,2469.993,2020-7-19T13:23:53Z
2020-07-19T11:26:09Z,42.805,6.029,13.3065,4.60030,2470.007,2020-7-19T13:26:56Z
2020-07-19T11:29:13Z,42.805,6.029,13.3009,4.60051,2470.007,2020-7-19T13:30:00Z
2020-07-19T11:32:16Z,42.805,6.029,13.3055,4.60068,2469.97,2020-7-19T13:33:03Z
2020-07-19T11:35:19Z,42.805,6.029,13.2997,4.60049,2470.007,2020-7-19T13:36:06Z
2020-07-19T11:38:22Z,42.805,6.029,13.2999,4.60072,2470.007,2020-7-19T13:39:09Z
2020-07-19T11:41:26Z,42.805,6.029,13.3001,4.60091,2470.007,2020-7-19T13:42:13Z
2020-07-19T11:44:29Z,42.805,6.029,13.2993,4.60087,2470.007,2020-7-19T13:45:16Z
2020-07-19T11:47:32Z,42.805,6.029,13.2990,4.60074,2470.017,2020-7-19T13:48:19Z
2020-07-19T11:50:35Z,42.805,6.029,13.2998,4.60092,2470.03,2020-7-19T13:51:22Z
2020-07-19T11:53:38Z,42.805,6.029,13.2998,4.60066,2469.993,2020-7-19T13:54:25Z
2020-07-19T11:56:42Z,42.805,6.029,13.2994,4.60046,2469.993,2020-7-19T13:57:29Z
2020-07-19T11:59:45Z,42.805,6.029,13.2999,4.60066,2469.97,2020-7-19T14:00:32Z
2020-07-19T12:02:48Z,42.805,6.029,13.2999,4.60049,2470.007,2020-7-19T14:03:35Z
2020-07-19T12:05:51Z,42.805,6.029,13.3011,4.60080,2469.97,2020-7-19T14:06:38Z
2020-07-19T12:08:55Z,42.805,6.029,13.3009,4.60074,2470.03,2020-7-19T14:09:42Z
2020-07-19T12:11:58Z,42.805,6.029,13.2998,4.60026,2469.993,2020-7-19T14:12:45Z
2020-07-19T12:15:01Z,42.805,6.029,13.2994,4.60069,2469.993,2020-7-19T14:15:48Z
2020-07-19T12:18:04Z,42.805,6.029,13.2995,4.60053,2469.993,2020-7-19T14:18:51Z
2020-07-19T12:21:07Z,42.805,6.029,13.3014,4.60081,2470.007,2020-7-19T14:21:54Z
2020-07-19T12:24:11Z,42.805,6.029,13.3007,4.60069,2470.007,2020-7-19T14:24:58Z
2020-07-19T12:27:14Z,42.805,6.029,13.2993,4.60073,2470.007,2020-7-19T14:28:01Z
2020-07-19T12:30:17Z,42.805,6.029,13.2998,4.60077,2470.007,2020-7-19T14:31:04Z
2020-07-19T12:33:20Z,42.805,6.029,13.3009,4.60069,2469.993,2020-7-19T14:34:07Z
2020-07-19T12:36:24Z,42.805,6.029,13.2991,4.60042,2470.007,2020-7-19T14:37:11Z
2020-07-19T12:39:27Z,42.805,6.029,13.3003,4.60036,2469.993,2020-7-19T14:40:14Z
2020-07-19T12:42:30Z,42.805,6.029,13.3026,4.60054,2469.984,2020-7-19T14:43:17Z
2020-07-19T12:45:33Z,42.805,6.029,13.2992,4.60061,2470.007,2020-7-19T14:46:20Z
2020-07-19T12:48:37Z,42.805,6.029,13.2991,4.60068,2470.017,2020-7-19T14:49:24Z
2020-07-19T12:51:40Z,42.805,6.029,13.2994,4.60069,2470.017,2020-7-19T14:52:27Z
2020-07-19T12:54:43Z,42.805,6.029,13.2998,4.60079,2469.993,2020-7-19T14:55:30Z
2020-07-19T12:57:46Z,42.805,6.029,13.2997,4.60040,2469.984,2020-7-19T14:58:33Z
2020-07-19T13:00:49Z,42.805,6.029,13.2991,4.60044,2469.993,2020-7-19T15:01:37Z
2020-07-19T13:03:53Z,42.805,6.029,13.2994,4.60046,2469.984,2020-7-19T15:04:40Z
2020-07-19T13:06:56Z,42.805,6.029,13.2996,4.60056,2469.993,2020-7-19T15:07:43Z
2020-07-19T13:09:59Z,42.805,6.029,13.3004,4.60064,2469.947,2020-7-19T15:10:46Z
2020-07-19T13:13:03Z,42.805,6.029,13.2994,4.60050,2469.97,2020-7-19T15:13:50Z
2020-07-19T13:16:06Z,42.805,6.029,13.3003,4.60050,2470.03,2020-7-19T15:16:53Z
2020-07-19T13:19:09Z,42.805,6.029,13.2998,4.60072,2470.007,2020-7-19T15:19:56Z
2020-07-19T13:22:13Z,42.805,6.029,13.2991,4.60051,2470.007,2020-7-19T15:23:00Z
2020-07-19T13:25:16Z,42.805,6.029,13.3001,4.60064,2469.993,2020-7-19T15:26:03Z
2020-07-19T13:28:19Z,42.805,6.029,13.2999,4.60054,2469.993,2020-7-19T15:29:07Z
2020-07-19T13:31:23Z,42.805,6.029,13.3000,4.60056,2469.97,2020-7-19T15:32:10Z
2020-07-19T13:34:26Z,42.805,6.029,13.3005,4.60067,2469.979,2020-7-19T15:35:13Z
2020-07-19T13:37:29Z,42.805,6.029,13.3000,4.60043,2469.993,2020-7-19T15:38:16Z
